Bullhead City, AZ

2:32 PM MST on January 23, 2017 (GMT -0700)
Laughlin-Bullhead International

Weather History for KIFP - July, 2013

Change the Weather History Date:

Monday, July 15, 2013

  Actual Average Record
Temperature  
Mean Temperature 100 °F -  
Max Temperature 111 °F 106 °F 118 °F (1998)
Min Temperature 89 °F 85 °F 72 °F (1993)
Cooling Degree Days 35    
Growing Degree Days 50 (Base 50)    
Moisture  
Dew Point 54 °F    
Average Humidity 23    
Maximum Humidity 33    
Minimum Humidity 12    
Precipitation  
Precipitation 0.00 in - - ()
Sea Level Pressure  
Sea Level Pressure 29.69 in    
Wind  
Wind Speed 6 mph (South)    
Max Wind Speed 21 mph    
Max Gust Speed 26 mph    
Visibility 10 miles    
Events      
Averages and records for this station are not official NWS values.
T = Trace of Precipitation, MM = Missing Value Source: NWS Daily Summary

Daily Weather History Graph

Daily Weather History Graph

Search for Another Location

Airport or City:

Trip Planner

Search our weather history database for the weather conditions in past years. The results will help you decide how hot, cold, wet, or windy it might be!

Date:

Astronomy

Jul. 15, 2013 Rise Set
Actual Time 5:35 AM MST 7:52 PM MST
Civil Twilight 5:06 AM MST 8:21 PM MST
Nautical Twilight 4:30 AM MST 8:57 PM MST
Astronomical Twilight 3:51 AM MST 9:35 PM MST
Moon 12:40 PM MST (7/15) No Moon Set
Length of Visible Light 15h 15m
Length of Day
14h 17m
Waxing Crescent, 46% of the Moon is Illuminated
Jul 15
Waxing Crescent
Jul 15
First Quarter
Jul 22
Full
Jul 29
Last Quarter
Aug 6
New

Hourly Weather History & Observations

Time (MST) Temp. Heat Index Dew Point Humidity Pressure Visibility Wind Dir Wind Speed Gust Speed Precip Events Conditions
12:15 AM 95.0 °F 93.0 °F 55.4 °F 26% 29.73 in 10.0 mi SSE 3.5 mph - N/A   Clear
12:35 AM 95.0 °F 93.0 °F 55.4 °F 26% 29.73 in 10.0 mi South 5.8 mph - N/A   Clear
12:55 AM 95.0 °F 93.0 °F 55.4 °F 26% 29.73 in 10.0 mi SE 4.6 mph - N/A   Clear
1:15 AM 95.0 °F 93.7 °F 57.2 °F 28% 29.73 in 10.0 mi Calm Calm - N/A   Clear
1:35 AM 93.2 °F 91.3 °F 55.4 °F 28% 29.73 in 10.0 mi South 3.5 mph - N/A   Clear
1:55 AM 93.2 °F 91.9 °F 57.2 °F 30% 29.73 in 10.0 mi Calm Calm - N/A   Clear
2:15 AM 93.2 °F 91.9 °F 57.2 °F 30% 29.73 in 10.0 mi Calm Calm - N/A   Clear
2:35 AM 93.2 °F 91.9 °F 57.2 °F 30% 29.73 in 10.0 mi Calm Calm - N/A   Clear
2:55 AM 91.4 °F 89.9 °F 57.2 °F 31% 29.73 in 10.0 mi South 3.5 mph - N/A   Clear
3:15 AM 91.4 °F 89.9 °F 57.2 °F 31% 29.73 in 10.0 mi SSE 3.5 mph - N/A   Clear
3:35 AM 91.4 °F 89.9 °F 57.2 °F 31% 29.73 in 10.0 mi Calm Calm - N/A   Clear
3:55 AM 91.4 °F 89.9 °F 57.2 °F 31% 29.73 in 10.0 mi Calm Calm - N/A   Clear
4:15 AM 89.6 °F 88.1 °F 57.2 °F 33% 29.73 in 10.0 mi Calm Calm - N/A   Clear
4:35 AM 89.6 °F 88.1 °F 57.2 °F 33% 29.73 in 10.0 mi Calm Calm - N/A   Clear
4:55 AM 89.6 °F 88.1 °F 57.2 °F 33% 29.74 in 10.0 mi Calm Calm - N/A   Clear
5:15 AM 89.6 °F 88.1 °F 57.2 °F 33% 29.74 in 10.0 mi Calm Calm - N/A   Clear
5:35 AM 89.6 °F 88.1 °F 57.2 °F 33% 29.74 in 10.0 mi East 4.6 mph - N/A   Clear
5:55 AM 91.4 °F 89.9 °F 57.2 °F 31% 29.74 in 10.0 mi ESE 3.5 mph - N/A   Clear
6:15 AM 91.4 °F 89.9 °F 57.2 °F 31% 29.75 in 10.0 mi Calm Calm - N/A   Clear
6:35 AM 93.2 °F 91.9 °F 57.2 °F 30% 29.75 in 10.0 mi Calm Calm - N/A   Clear
6:55 AM 93.2 °F 91.9 °F 57.2 °F 30% 29.76 in 10.0 mi South 3.5 mph - N/A   Clear
7:15 AM 93.2 °F 91.9 °F 57.2 °F 30% 29.76 in 10.0 mi South 4.6 mph - N/A   Clear
7:35 AM 93.2 °F 91.9 °F 57.2 °F 30% 29.76 in 10.0 mi South 5.8 mph - N/A   Clear
7:55 AM 95.0 °F 93.7 °F 57.2 °F 28% 29.76 in 10.0 mi South 4.6 mph - N/A   Clear
8:15 AM 95.0 °F 93.7 °F 57.2 °F 28% 29.77 in 10.0 mi SSW 5.8 mph - N/A   Clear
8:35 AM 95.0 °F 93.7 °F 57.2 °F 28% 29.77 in 10.0 mi ESE 5.8 mph - N/A   Clear
8:55 AM 95.0 °F 93.7 °F 57.2 °F 28% 29.76 in 10.0 mi SSW 4.6 mph - N/A   Clear
9:15 AM 96.8 °F 95.8 °F 57.2 °F 27% 29.76 in 10.0 mi South 5.8 mph - N/A   Clear
9:35 AM 98.6 °F 98.5 °F 59.0 °F 27% 29.76 in 10.0 mi SSW 5.8 mph - N/A   Clear
9:55 AM 100.4 °F 100.2 °F 59.0 °F 25% 29.75 in 10.0 mi SW 8.1 mph - N/A   Clear
10:15 AM 100.4 °F 99.7 °F 57.2 °F 24% 29.75 in 10.0 mi SSW 8.1 mph - N/A   Clear
10:35 AM 102.2 °F 101.4 °F 57.2 °F 22% 29.75 in 10.0 mi SW 10.4 mph - N/A   Clear
10:55 AM 104.0 °F 102.3 °F 53.6 °F 19% 29.74 in 10.0 mi SSW 9.2 mph - N/A   Clear
11:15 AM 104.0 °F - 48.2 °F 15% 29.74 in 10.0 mi SSW 8.1 mph 16.1 mph N/A   Clear
11:35 AM 105.8 °F - 44.6 °F 13% 29.73 in 10.0 mi South 5.8 mph - N/A   Clear
11:55 AM 107.6 °F - 46.4 °F 13% 29.72 in 10.0 mi SSW 10.4 mph - N/A   Clear
12:15 PM 107.6 °F - 50.0 °F 15% 29.71 in 10.0 mi SW 8.1 mph - N/A   Clear
12:35 PM 107.6 °F 106.1 °F 53.6 °F 17% 29.70 in 10.0 mi SSW 11.5 mph 16.1 mph N/A   Clear
12:55 PM 107.6 °F 106.1 °F 53.6 °F 17% 29.69 in 10.0 mi SSW 15.0 mph - N/A   Clear
1:15 PM 109.4 °F 107.9 °F 53.6 °F 16% 29.68 in 10.0 mi SSW 11.5 mph 19.6 mph N/A   Clear
1:35 PM 109.4 °F - 51.8 °F 15% 29.67 in 10.0 mi South 12.7 mph 25.3 mph N/A   Clear
1:55 PM 109.4 °F 107.9 °F 53.6 °F 16% 29.65 in 10.0 mi SW 13.8 mph - N/A   Clear
2:15 PM 109.4 °F 107.9 °F 53.6 °F 16% 29.65 in 10.0 mi SSE 12.7 mph 24.2 mph N/A   Clear
2:35 PM 109.4 °F - 50.0 °F 14% 29.64 in 10.0 mi SSE 11.5 mph 19.6 mph N/A   Clear
2:55 PM 111.2 °F - 48.2 °F 12% 29.62 in 10.0 mi East 18.4 mph 23.0 mph N/A   Clear
3:15 PM 111.2 °F - 48.2 °F 12% 29.62 in 10.0 mi SSE 15.0 mph 24.2 mph N/A   Clear
3:35 PM 109.4 °F - 50.0 °F 14% 29.61 in 10.0 mi SSE 18.4 mph 24.2 mph N/A   Clear
3:55 PM 109.4 °F - 50.0 °F 14% 29.61 in 10.0 mi SE 9.2 mph 23.0 mph N/A   Clear
4:15 PM 109.4 °F - 50.0 °F 14% 29.59 in 10.0 mi SE 18.4 mph 26.5 mph N/A   Clear
4:35 PM 111.2 °F - 50.0 °F 13% 29.59 in 10.0 mi SSW 11.5 mph 19.6 mph N/A   Clear
4:55 PM 111.2 °F - 48.2 °F 12% 29.59 in 10.0 mi SSE 6.9 mph 18.4 mph N/A   Clear
5:15 PM 109.4 °F - 48.2 °F 13% 29.59 in 10.0 mi South 9.2 mph 21.9 mph N/A   Clear
5:35 PM 111.2 °F - 48.2 °F 12% 29.59 in 10.0 mi SSE 12.7 mph 21.9 mph N/A   Clear
5:55 PM 109.4 °F - 48.2 °F 13% 29.59 in 10.0 mi SSE 11.5 mph 23.0 mph N/A   Clear
6:15 PM 109.4 °F - 48.2 °F 13% 29.59 in 10.0 mi SSE 10.4 mph 17.3 mph N/A   Clear
6:35 PM 109.4 °F - 48.2 °F 13% 29.59 in 10.0 mi SE 12.7 mph 16.1 mph N/A   Clear
6:55 PM 109.4 °F - 48.2 °F 13% 29.58 in 10.0 mi SE 17.3 mph - N/A   Clear
7:15 PM 109.4 °F - 48.2 °F 13% 29.59 in 10.0 mi South 12.7 mph - N/A   Clear
7:35 PM 107.6 °F - 48.2 °F 14% 29.59 in 10.0 mi South 15.0 mph - N/A   Clear
7:55 PM 107.6 °F - 48.2 °F 14% 29.59 in 10.0 mi South 13.8 mph - N/A   Clear
8:15 PM 104.0 °F 102.9 °F 55.4 °F 20% 29.60 in 10.0 mi SE 20.7 mph 25.3 mph N/A   Clear
8:35 PM 104.0 °F 102.9 °F 55.4 °F 20% 29.61 in 10.0 mi ESE 17.3 mph 24.2 mph N/A   Clear
8:55 PM 104.0 °F 102.3 °F 53.6 °F 19% 29.62 in 10.0 mi East 17.3 mph 24.2 mph N/A   Clear
9:15 PM 102.2 °F 100.4 °F 53.6 °F 20% 29.64 in 10.0 mi SE 11.5 mph - N/A   Clear
9:35 PM 98.6 °F 98.5 °F 59.0 °F 27% 29.65 in 10.0 mi ESE 9.2 mph - N/A   Clear
9:55 PM 96.8 °F 96.2 °F 59.0 °F 28% 29.66 in 10.0 mi South 8.1 mph - N/A   Clear
10:15 PM 96.8 °F 95.8 °F 57.2 °F 27% 29.67 in 10.0 mi SSW 8.1 mph - N/A   Clear
10:35 PM 95.0 °F 93.7 °F 57.2 °F 28% 29.67 in 10.0 mi ESE 8.1 mph - N/A   Clear
10:55 PM 95.0 °F 93.7 °F 57.2 °F 28% 29.68 in 10.0 mi SSW 10.4 mph - N/A   Clear
11:15 PM 95.0 °F 93.0 °F 55.4 °F 26% 29.68 in 10.0 mi South 12.7 mph - N/A   Clear
11:35 PM 95.0 °F 93.0 °F 55.4 °F 26% 29.68 in 10.0 mi South 13.8 mph - N/A   Clear
11:55 PM 95.0 °F 93.7 °F 57.2 °F 28% 29.69 in 10.0 mi East 6.9 mph - N/A   Clear